CW8198 Weather Reports


time (UTC)temp
C
wind
direction
speed
KPH
gust
KPH
rain 1hr
cm
rain 24hr
cm
rain mn
cm
humidity
%
barometer
mb
20260506003053 11 336 9.7 24.1 0.00 0.15 0.08 39 1012.6
20260506002552 11 18 12.9 25.7 0.00 0.15 0.08 39 1012.7
20260506002054 11 22 12.9 27.4 0.00 0.15 0.08 39 1012.6
20260506001550 11 325 17.7 27.4 0.00 0.15 0.08 39 1012.6
20260506001050 11 342 11.3 22.5 0.00 0.15 0.08 40 1012.5
20260506000550 12 13 8.0 22.5 0.00 0.15 0.08 40 1012.5
20260505235549 12 23 9.7 24.1 0.00 0.15 0.08 40 1012.6
20260505235049 12 18 12.9 24.1 0.00 0.15 0.08 40 1012.5
20260505234048 12 205 9.7 25.7 0.00 0.15 0.08 39 1012.4
20260505232044 12 30 16.1 22.5 0.00 0.15 0.08 38 1012.3
20260505231542 12 11 11.3 25.7 0.00 0.15 0.08 39 1012.3
20260505231041 12 13 14.5 30.6 0.00 0.15 0.08 39 1012.3
20260505230541 13 11 9.7 30.6 0.00 0.15 0.08 39 1012.2
20260505230040 13 347 11.3 29.0 0.00 0.15 0.08 39 1012.3
20260505225540 13 351 12.9 32.2 0.00 0.15 0.08 38 1012.2
20260505225040 14 303 16.1 32.2 0.00 0.15 0.08 38 1012.1
20260505224539 14 9 6.4 20.9 0.00 0.15 0.08 38 1012.1
20260505224039 15 325 4.8 24.1 0.00 0.15 0.08 39 1012.0
20260505223540 15 301 11.3 24.1 0.00 0.15 0.08 39 1012.0
20260505223038 15 312 8.0 24.1 0.00 0.15 0.08 39 1012.0
20260505222039 15 275 6.4 22.5 0.00 0.15 0.08 38 1012.0
20260505221537 15 287 6.4 17.7 0.00 0.15 0.08 41 1012.0
20260505221037 14 338 6.4 19.3 0.00 0.15 0.08 40 1012.0
20260505220535 14 303 6.4 22.5 0.00 0.15 0.08 40 1011.9
20260505220035 14 9 11.3 22.5 0.00 0.15 0.08 41 1011.9
20260505215534 14 277 8.0 17.7 0.00 0.15 0.08 39 1011.8
20260505215032 14 257 6.4 22.5 0.00 0.15 0.08 38 1011.9
20260505214032 14 300 9.7 24.1 0.00 0.15 0.08 38 1011.9
20260505213532 15 297 12.9 24.1 0.00 0.15 0.08 38 1012.0
20260505213032 15 332 11.3 20.9 0.00 0.15 0.08 37 1012.0
20260505212532 15 350 6.4 22.5 0.00 0.15 0.08 41 1012.0
20260505212033 14 268 9.7 22.5 0.00 0.15 0.08 42 1012.2
20260505211531 14 16 4.8 25.7 0.00 0.15 0.08 41 1012.2
20260505211031 14 323 8.0 25.7 0.00 0.15 0.08 39 1012.1
20260505210531 14 314 14.5 25.7 0.00 0.15 0.08 41 1012.2
20260505210030 14 32 9.7 29.0 0.00 0.15 0.08 40 1012.3
20260505205529 14 15 17.7 29.0 0.00 0.15 0.08 40 1012.4
20260505205029 15 10 11.3 22.5 0.00 0.15 0.08 41 1012.4
20260505204528 15 57 9.7 22.5 0.00 0.15 0.08 39 1012.5
20260505204028 15 336 6.4 24.1 0.00 0.15 0.08 41 1012.5
20260505203528 15 346 14.5 24.1 0.00 0.15 0.08 39 1012.5
20260505203028 15 328 6.4 16.1 0.00 0.15 0.08 40 1012.6
20260505202527 15 344 9.7 22.5 0.00 0.15 0.08 39 1012.6
20260505202029 15 292 8.0 24.1 0.00 0.15 0.08 39 1012.6
20260505200525 16 325 9.7 25.7 0.00 0.15 0.08 39 1012.7
20260505200025 16 350 9.7 20.9 0.00 0.15 0.08 41 1012.7
20260505195524 16 339 8.0 30.6 0.00 0.15 0.08 41 1012.7
20260505195024 16 16 11.3 30.6 0.00 0.15 0.08 39 1012.7
20260505194524 16 311 8.0 25.7 0.00 0.15 0.08 41 1012.6
20260505194024 15 342 6.4 25.7 0.00 0.15 0.08 43 1012.8
20260505193524 15 330 9.7 27.4 0.00 0.15 0.08 40 1012.8
20260505193022 15 13 12.9 29.0 0.00 0.15 0.08 39 1012.7
20260505192024 16 309 9.7 24.1 0.00 0.15 0.08 38 1012.9
20260505191522 16 11 8.0 17.7 0.00 0.15 0.08 40 1013.0
20260505191022 16 302 6.4 24.1 0.00 0.15 0.08 39 1013.0
20260505190522 16 334 9.7 24.1 0.00 0.15 0.08 39 1013.0
20260505190020 16 277 6.4 16.1 0.00 0.15 0.08 44 1013.1
20260505185520 16 303 8.0 20.9 0.00 0.15 0.08 44 1013.1
20260505185020 15 329 6.4 25.7 0.00 0.15 0.08 42 1013.1
20260505184520 15 38 11.3 27.4 0.00 0.15 0.08 42 1013.1
20260505184019 15 319 8.0 33.8 0.00 0.15 0.08 42 1013.1
20260505183518 15 334 17.7 33.8 0.00 0.15 0.08 40 1013.3
20260505183018 16 344 8.0 20.9 0.00 0.15 0.08 38 1013.3
20260505182518 16 306 6.4 25.7 0.00 0.15 0.08 44 1013.3
20260505182019 16 329 9.7 27.4 0.00 0.15 0.08 47 1013.4
20260505181517 16 329 9.7 27.4 0.00 0.15 0.08 43 1013.4
20260505181016 16 324 14.5 25.7 0.00 0.15 0.08 44 1013.4
20260505180514 16 11 9.7 27.4 0.00 0.15 0.08 43 1013.4
20260505180012 16 342 11.3 27.4 0.00 0.15 0.08 46 1013.5
20260505175512 16 346 14.5 27.4 0.00 0.15 0.08 43 1013.4
20260505175011 16 314 8.0 20.9 0.00 0.15 0.08 46 1013.3
20260505174511 16 309 6.4 20.9 0.00 0.15 0.08 45 1013.3
20260505173011 15 317 6.4 20.9 0.00 0.15 0.08 48 1013.5
20260505172509 14 9 11.3 20.9 0.00 0.15 0.08 53 1013.7
20260505172010 13 294 4.8 12.9 0.00 0.15 0.08 53 1013.6
20260505171509 13 51 1.6 11.3 0.00 0.15 0.08 47 1013.8
20260505171008 13 254 3.2 11.3 0.00 0.15 0.08 55 1013.7
20260505170508 13 286 3.2 11.3 0.00 0.15 0.08 53 1013.9
20260505170008 13 289 3.2 11.3 0.00 0.15 0.08 50 1013.9
20260505165507 13 286 6.4 11.3 0.00 0.15 0.08 52 1013.9
20260505165007 13 317 3.2 9.7 0.00 0.15 0.08 55 1013.9
20260505164506 13 325 4.8 9.7 0.00 0.15 0.08 53 1014.1
20260505163506 13 16 3.2 9.7 0.00 0.15 0.08 56 1014.0
20260505163005 12 281 3.2 12.9 0.00 0.15 0.08 60 1013.9
20260505162506 12 9 1.6 14.5 0.00 0.15 0.08 60 1013.7
20260505162005 12 338 3.2 14.5 0.00 0.15 0.08 62 1013.6
20260505161005 11 309 3.2 12.9 0.00 0.15 0.08 63 1013.6
20260505160503 11 279 3.2 12.9 0.00 0.15 0.08 65 1013.5
20260505153003 10 323 3.2 12.9 0.00 0.15 0.08 71 1013.4
20260505152002 9 247 3.2 12.9 0.00 0.15 0.08 72 1013.3
20260505151502 9 334 4.8 14.5 0.00 0.15 0.08 72 1013.3
20260505151001 9 334 4.8 14.5 0.00 0.15 0.08 74 1013.4
20260505150501 9 309 4.8 12.9 0.00 0.15 0.08 74 1013.1
20260505140459 7 282 3.2 9.7 0.00 0.15 0.08 83 1013.0
20260505124948 7 19 1.6 4.8 0.00 0.15 0.08 88 1011.8
20260505124448 7 334 1.6 4.8 0.00 0.15 0.08 89 1011.7
20260505122947 6 325 1.6 3.2 0.00 0.15 0.08 88 1011.4
20260505122447 6 275 0.0 3.2 0.00 0.15 0.08 88 1011.4
20260505121946 6 255 1.6 3.2 0.00 0.15 0.08 88 1011.2
20260505121446 6 338 0.0 3.2 0.00 0.15 0.08 88 1011.1
20260505120944 6 319 1.6 3.2 0.00 0.15 0.08 88 1010.9
20260505115944 6 229 1.6 3.2 0.00 0.15 0.08 88 1010.8
20260505115444 6 9 0.0 1.6 0.00 0.15 0.08 87 1010.6
20260505114442 6 319 1.6 3.2 0.00 0.15 0.08 87 1010.4
20260505113943 6 26 1.6 3.2 0.00 0.15 0.08 87 1010.3
20260505113442 6 9 0.0 1.6 0.00 0.15 0.08 87 1010.5
20260505112944 6 34 0.0 1.6 0.00 0.15 0.08 87 1010.4
20260505112443 6 51 0.0 1.6 0.00 0.15 0.08 87 1010.4
20260505111442 6 146 0.0 1.6 0.00 0.15 0.08 87 1010.5
20260505110941 6 9 0.0 1.6 0.00 0.15 0.08 87 1010.5
20260505110441 6 137 0.0 1.6 0.00 0.15 0.08 87 1010.6
20260505101923 7 9 1.6 3.2 0.00 0.15 0.08 88 1010.9
20260505101424 7 330 1.6 4.8 0.00 0.15 0.08 88 1010.8
20260505100422 7 34 1.6 3.2 0.00 0.15 0.08 88 1010.8
20260505095917 7 325 1.6 3.2 0.00 0.15 0.08 88 1010.8
20260505095416 7 291 0.0 3.2 0.00 0.15 0.08 88 1010.7
20260505094915 7 9 1.6 3.2 0.00 0.15 0.08 88 1010.5
20260505093916 7 265 1.6 3.2 0.00 0.15 0.08 88 1010.6
20260505093414 7 265 0.0 4.8 0.00 0.15 0.08 88 1010.4
20260505092913 7 309 1.6 6.4 0.00 0.15 0.08 88 1010.3
20260505092413 7 16 3.2 6.4 0.00 0.15 0.08 88 1010.2
20260505091914 7 346 3.2 6.4 0.00 0.15 0.08 88 1009.9
20260505085912 7 334 1.6 4.8 0.00 0.15 0.08 88 1009.8
20260505085414 7 282 1.6 4.8 0.00 0.15 0.08 88 1009.7
20260505084912 7 344 1.6 4.8 0.00 0.15 0.08 87 1009.8
20260505084412 7 337 3.2 4.8 0.00 0.15 0.08 87 1009.8
20260505083911 7 348 1.6 4.8 0.00 0.15 0.08 87 1009.7
20260505083410 8 282 1.6 3.2 0.00 0.15 0.08 87 1009.7
20260505082911 8 298 1.6 3.2 0.00 0.15 0.08 87 1009.5
20260505082410 8 319 1.6 4.8 0.00 0.15 0.08 87 1009.4
20260505081910 8 9 0.0 4.8 0.00 0.15 0.08 87 1009.3
20260505081409 8 309 1.6 3.2 0.00 0.15 0.08 87 1009.3
20260505080909 8 309 1.6 1.6 0.00 0.15 0.08 87 1009.1
20260505080411 8 325 0.0 3.2 0.00 0.15 0.08 87 1009.1
20260505075908 8 291 0.0 3.2 0.00 0.15 0.08 87 1008.9
20260505075408 8 338 1.6 3.2 0.00 0.15 0.08 87 1008.7
20260505074909 8 9 1.6 3.2 0.03 0.15 0.08 87 1008.9
20260505074407 8 342 1.6 3.2 0.03 0.15 0.08 87 1008.9
20260505073406 8 9 1.6 3.2 0.03 0.15 0.08 87 1009.0
20260505072908 8 9 1.6 3.2 0.03 0.15 0.08 86 1009.0
20260505072408 8 319 0.0 1.6 0.03 0.15 0.08 86 1009.0
20260505071906 8 221 0.0 3.2 0.03 0.15 0.08 86 1009.0
20260505071405 8 178 1.6 3.2 0.03 0.15 0.08 86 1008.9
20260505070906 8 238 1.6 4.8 0.03 0.15 0.08 86 1008.9
20260505065404 8 309 1.6 3.2 0.05 0.15 0.08 85 1008.5
20260505064903 8 9 1.6 3.2 0.03 0.13 0.05 85 1008.2
20260505064404 8 26 0.0 3.2 0.03 0.13 0.05 85 1008.6
20260505063903 8 9 1.6 3.2 0.03 0.13 0.05 84 1008.9
20260505063402 8 205 0.0 1.6 0.03 0.13 0.05 84 1008.7
20260505062903 8 309 0.0 3.2 0.03 0.13 0.05 84 1008.8
20260505062402 8 165 1.6 4.8 0.03 0.13 0.05 83 1008.7
20260505061901 8 93 1.6 4.8 0.03 0.13 0.05 83 1008.7
20260505061401 8 309 1.6 4.8 0.03 0.13 0.05 82 1009.2
20260505060903 8 282 3.2 4.8 0.03 0.13 0.05 82 1009.2
20260505055856 8 9 0.0 3.2 0.03 0.10 0.03 80 1008.9
20260505055356 8 291 1.6 4.8 0.03 0.10 0.03 80 1008.9
20260505054855 8 41 1.6 4.8 0.05 0.10 0.03 80 1008.9
20260505054355 8 22 3.2 4.8 0.08 0.10 0.03 79 1009.1
20260505053854 8 342 0.0 4.8 0.08 0.10 0.03 79 1009.2
20260505053355 8 275 1.6 4.8 0.10 0.10 0.03 78 1009.4
20260505052854 8 9 1.6 4.8 0.10 0.10 0.03 77 1009.0
20260505052353 9 221 1.6 4.8 0.10 0.10 0.03 77 1008.9
20260505051353 9 105 1.6 6.4 0.10 0.10 0.03 74 1008.5
20260505050352 9 9 3.2 6.4 0.08 0.08 0.00 72 1009.0
20260505041350 11 325 3.2 14.5 0.00 0.00 0.00 60 1009.4
20260505040350 11 346 8.0 17.7 0.00 0.00 0.00 56 1009.2
20260505035348 11 20 8.0 20.9 0.00 0.00 0.00 53 1009.0
20260505034849 12 334 9.7 20.9 0.00 0.00 0.00 52 1008.9
20260505033348 12 342 12.9 22.5 0.00 0.00 0.00 51 1008.6
20260505032348 12 338 9.7 24.1 0.00 0.00 0.00 50 1008.7
20260505031846 12 319 11.3 24.1 0.00 0.00 0.00 49 1008.7
20260505031346 12 26 9.7 20.9 0.00 0.00 0.00 46 1008.9
20260505030846 12 342 8.0 22.5 0.00 0.00 0.00 45 1008.8
20260505030346 13 34 11.3 25.7 0.00 0.00 0.00 44 1008.6
20260505025845 13 23 12.9 25.7 0.00 0.00 0.00 44 1008.1
20260505024845 13 40 11.3 25.7 0.00 0.00 0.00 46 1007.9
20260505024344 13 19 9.7 22.5 0.00 0.00 0.00 46 1008.3
20260505023843 13 24 9.7 25.7 0.00 0.00 0.00 46 1007.9
20260505023344 13 346 12.9 25.7 0.00 0.00 0.00 45 1007.9
20260505022843 13 11 14.5 25.7 0.00 0.00 0.00 45 1007.9
20260505021341 13 347 17.7 30.6 0.00 0.00 0.00 44 1007.7
20260505020841 13 22 16.1 33.8 0.00 0.00 0.00 43 1007.7
20260505020341 13 319 16.1 37.0 0.00 0.00 0.00 44 1007.4
20260505015840 13 348 19.3 41.8 0.00 0.00 0.00 44 1007.6
20260505015340 13 317 12.9 35.4 0.00 0.00 0.00 45 1007.4
20260505014841 14 306 16.1 32.2 0.00 0.00 0.00 45 1007.5
20260505014339 14 337 16.1 32.2 0.00 0.00 0.00 44 1007.4
20260505013839 14 15 16.1 29.0 0.00 0.00 0.00 45 1007.1
20260505013340 14 347 12.9 29.0 0.00 0.00 0.00 45 1006.9
20260505012838 15 351 16.1 25.7 0.00 0.00 0.00 43 1006.9
20260505012340 15 336 9.7 30.6 0.00 0.00 0.00 42 1006.9
20260505011838 15 11 14.5 30.6 0.00 0.00 0.00 42 1006.7
20260505011339 15 19 20.9 38.6 0.00 0.00 0.00 40 1006.7
20260505005835 16 350 17.7 37.0 0.00 0.00 0.00 40 1006.5
20260505004834 16 337 19.3 32.2 0.00 0.00 0.00 37 1006.2
20260505004335 17 29 17.7 40.2 0.00 0.00 0.00 37 1006.4
20260505003833 17 50 22.5 40.2 0.00 0.00 0.00 36 1006.3
20260505003333 17 288 14.5 27.4 0.00 0.00 0.00 37 1006.1